[[{"header":{"parameterUnit":"m.s-1","parameterCategory":1,"la1":30.2991,"la2":30.254,"lo1":-89.0895,"lo2":-89.0444,"dy":0.0017,"dx":0.0017,"nx":28,"ny":28,"refTime":"2024-07-19T21:00:00:Z","depth":0,"parameterNumber":2,"parameterNumberName":"U-component_of_WINDS"},"data":[0,0,0,0,0,0,0,0,0,0,0,0,0,0,0,0,0,0,0,0,0,0,0,0,0,0,0,0,0,0,0,0,0,0,0,0,0,0,0,0,0,0,0,0,0,0,0,0,0,0,0,0,0,0,0,0,0,0,-2.3631,-2.3631,0,-2.362,-2.362,-2.362,-2.3621,-2.3622,-2.3622,-2.3622,-2.361,-2.361,-2.3609,0,0,0,0,0,0,0,0,0,0,0,0,0,-2.3652,-2.3651,-2.3631,-2.3631,-2.3631,-2.362,-2.362,-2.362,-2.3621,-2.3622,-2.3622,-2.3622,-2.361,-2.361,-2.3609,0,0,0,0,0,0,0,0,0,0,0,0,0,-2.3642,-2.3651,-2.3631,-2.363,-2.363,-2.362,-2.362,-2.362,-2.3621,-2.3622,-2.3622,-2.3622,-2.3611,-2.361,-2.3609,-2.3599,0,0,-2.3607,-2.3607,0,0,0,0,0,0,0,0,-2.3643,-2.3641,-2.3631,-2.363,-2.363,-2.3623,-2.3623,-2.3613,-2.3621,-2.3625,-2.3622,-2.3622,-2.3614,-2.3613,-2.3611,-2.3599,-2.3598,-2.3607,-2.3607,-2.3606,-2.3606,0,0,0,0,0,0,0,-2.3643,-2.3642,-2.3627,-2.3631,-2.363,-2.363,-2.3629,-2.3621,-2.3618,-2.3624,-2.3625,-2.3623,-2.3614,-2.3611,-2.361,-2.3598,-2.3607,-2.3606,-2.3606,-2.3606,-2.3577,-2.3576,0,0,0,0,0,0,-2.3644,-2.3642,-2.3627,-2.3627,-2.3637,-2.3629,-2.3628,-2.3625,-2.3618,-2.3617,-2.3623,-2.3623,-2.3612,-2.3611,-2.361,-2.3597,-2.3606,-2.3606,-2.3605,-2.3577,-2.3576,-2.3576,0,0,0,0,0,0,-2.3645,-2.3643,-2.3628,-2.3634,-2.3633,-2.3629,-2.3625,-2.3624,-2.3622,-2.3617,-2.3616,-2.3621,-2.3612,-2.3611,-2.3602,-2.3596,-2.3605,-2.3605,-2.3577,-2.3577,-2.3576,-2.3571,0,0,0,0,0,0,-2.3645,-2.3643,-2.364,-2.3634,-2.3632,-2.362,-2.3625,-2.3624,-2.362,-2.3621,-2.3615,-2.3614,-2.3613,-2.3603,-2.3601,-2.3596,-2.3604,-2.3578,-2.3577,-2.3576,-2.3572,-2.3571,-2.357,0,0,0,0,0,-2.3646,-2.3639,-2.364,-2.3638,-2.3628,-2.362,-2.3619,-2.3617,-2.362,-2.3616,-2.3613,-2.3614,-2.3597,-2.3602,-2.36,-2.3594,-2.3578,-2.3577,-2.3576,-2.3572,-2.3571,-2.357,0,0,0,0,0,0,-2.3644,-2.3638,-2.3639,-2.363,-2.3625,-2.362,-2.3615,-2.3616,-2.361,-2.3611,-2.3609,-2.3608,-2.3598,-2.3595,-2.36,-2.3584,-2.3588,-2.3587,-2.3586,-2.3584,-2.3583,-2.3584,-2.3603,0,0,0,0,0,-2.3643,-2.3637,-2.3632,-2.3625,-2.3622,-2.3619,-2.3616,-2.3615,-2.361,-2.3608,-2.3604,-2.3599,-2.3593,-2.3588,-2.3582,-2.3572,-2.357,-2.3567,-2.3566,-2.3565,-2.3563,-2.3556,-2.3554,-2.3574,-2.3574,-2.3574,0,0,-2.3639,-2.3636,-2.3632,-2.3624,-2.3621,-2.3614,-2.3618,-2.3611,-2.3606,-2.3607,-2.3598,-2.3595,-2.3589,-2.3579,-2.3574,-2.3576,-2.3558,-2.3564,-2.3563,-2.3562,-2.3555,-2.3553,-2.3552,-2.3573,-2.3573,-2.3573,0,0,-2.363,-2.3627,-2.362,-2.3616,-2.361,-2.3608,-2.3606,-2.3601,-2.3599,-2.359,-2.359,-2.3584,-2.3573,-2.3568,-2.3565,-2.3552,-2.3553,-2.355,-2.3544,-2.3537,-2.3535,-2.3534,-2.3528,-2.3527,-2.3549,-2.3549,-2.3549,0,-2.3627,-2.3617,-2.3616,-2.3609,-2.3605,-2.3606,-2.3598,-2.3594,-2.3587,-2.3583,-2.3586,-2.3571,-2.3568,-2.3555,-2.3552,-2.355,-2.3547,-2.3551,-2.3536,-2.3534,-2.3533,-2.3528,-2.3526,-2.3549,-2.3549,-2.3549,-2.3549,0,-2.3613,-2.3606,-2.3601,-2.3594,-2.3589,-2.3582,-2.3579,-2.3574,-2.3573,-2.3571,-2.3561,-2.3556,-2.3548,-2.3546,-2.3545,-2.3533,-2.3534,-2.3536,-2.3541,-2.3531,-2.3526,-2.3524,-2.3548,-2.3549,-2.3549,-2.3549,0,0,-2.3603,-2.3594,-2.3592,-2.3588,-2.3581,-2.3575,-2.3568,-2.356,-2.3555,-2.355,-2.3542,-2.3533,-2.3534,-2.353,-2.3529,-2.3523,-2.3512,-2.3526,-2.3525,-2.3522,-2.3496,-2.3494,-2.3491,-2.3512,-2.3512,-2.3511,-2.3496,0,-2.3592,-2.3578,-2.3576,-2.3564,-2.3557,-2.3557,-2.355,-2.3544,-2.3541,-2.3534,-2.3531,-2.3524,-2.3527,-2.3524,-2.3518,-2.3514,-2.3506,-2.3516,-2.3504,-2.3504,-2.3504,-2.3489,-2.3487,-2.3473,-2.3494,-2.3494,-2.3494,0,-2.3578,-2.3571,-2.3558,-2.3551,-2.3548,-2.3542,-2.3533,-2.3527,-2.3521,-2.3519,-2.3514,-2.3513,-2.3504,-2.3509,-2.3496,-2.3502,-2.3497,-2.3494,-2.3494,-2.3492,-2.3497,-2.3485,-2.3468,-2.3466,-2.3491,-2.3491,-2.3491,0,-2.357,-2.3558,-2.3548,-2.3545,-2.3537,-2.3532,-2.3528,-2.3522,-2.3517,-2.351,-2.3506,-2.3499,-2.3494,-2.3487,-2.3484,-2.3489,-2.3471,-2.3476,-2.3468,-2.3468,-2.3463,-2.3464,-2.3444,-2.3462,-2.3462,-2.3462,-2.3462,0,-2.3557,-2.3549,-2.3544,-2.3538,-2.3528,-2.3526,-2.3516,-2.3512,-2.3506,-2.3499,-2.3499,-2.3492,-2.3488,-2.348,-2.3478,-2.3466,-2.3465,-2.3462,-2.3461,-2.3461,-2.3462,-2.3458,-2.3458,-2.3462,-2.3462,-2.3462,-2.3462,0,-2.3547,-2.3544,-2.3532,-2.3525,-2.3523,-2.3516,-2.351,-2.3503,-2.35,-2.349,-2.3488,-2.3483,-2.3473,-2.3469,-2.3458,-2.3456,-2.3443,-2.3443,-2.3445,-2.3444,-2.3436,-2.3436,-2.3412,-2.3408,-2.343,-2.343,-2.343,0,-2.3539,-2.3532,-2.3524,-2.3519,-2.3515,-2.3507,-2.3501,-2.3499,-2.3493,-2.3484,-2.3478,-2.3469,-2.3461,-2.3446,-2.3441,-2.3431,-2.3431,-2.3423,-2.343,-2.3429,-2.3429,-2.3429,-2.3428,-2.3422,-2.3422,-2.3421,-2.3421,0,-2.3525,-2.3523,-2.3515,-2.3507,-2.35,-2.3493,-2.3487,-2.3482,-2.3478,-2.3472,-2.3462,-2.3456,-2.3443,-2.3433,-2.3424,-2.3419,-2.3419,-2.3419,-2.3417,-2.3416,-2.3417,-2.3415,-2.344,-2.342,-2.342,-2.342,-2.342,-2.342,-2.3514,-2.3508,-2.35,-2.3492,-2.3486,-2.3479,-2.3472,-2.3468,-2.346,-2.3449,-2.3448,-2.3437,-2.3429,-2.3416,-2.3411,-2.3402,-2.3404,-2.3401,-2.34,-2.3398,-2.3397,-2.3419,-2.34,-2.3401,-2.3401,-2.3401,-2.3401,0,-2.3499,-2.3494,-2.3486,-2.3476,-2.3468,-2.3469,-2.3461,-2.3455,-2.3445,-2.3438,-2.343,-2.3418,-2.3408,-2.3401,-2.3391,-2.3385,-2.3384,-2.3382,-2.3382,-2.338,-2.3397,-2.3399,-2.3382,-2.3382,-2.3382,-2.3382,-2.3382,-2.3382,-2.349,-2.3478,-2.3475,-2.3461,-2.3456,-2.3445,-2.344,-2.3433,-2.3427,-2.3414,-2.3405,-2.3401,-2.3394,-2.3383,-2.3373,-2.3372,-2.3367,-2.3364,-2.3363,-2.3378,-2.338,-2.3381,-2.3384,-2.3364,-2.3364,-2.3347,-2.3347,-2.3347]},{"header":{"parameterUnit":"m.s-1","parameterCategory":1,"la1":30.2991,"la2":30.254,"lo1":-89.0895,"lo2":-89.0444,"dy":0.0017,"dx":0.0017,"nx":28,"ny":28,"refTime":"2024-07-19T21:00:00:Z","depth":0,"parameterNumber":3,"parameterNumberName":"V-component_of_WINDS"},"data":[0,0,0,0,0,0,0,0,0,0,0,0,0,0,0,0,0,0,0,0,0,0,0,0,0,0,0,0,0,0,0,0,0,0,0,0,0,0,0,0,0,0,0,0,0,0,0,0,0,0,0,0,0,0,0,0,0,0,2.031,2.0311,0,2.0463,2.0464,2.0466,2.0586,2.0588,2.0589,2.059,2.0746,2.0749,2.0752,0,0,0,0,0,0,0,0,0,0,0,0,0,2.0123,2.0126,2.031,2.0312,2.0313,2.0462,2.0465,2.0467,2.0586,2.0588,2.0589,2.059,2.0745,2.0749,2.0753,0,0,0,0,0,0,0,0,0,0,0,0,0,2.0233,2.0127,2.0309,2.0391,2.04,2.0462,2.0465,2.0467,2.0586,2.0588,2.0589,2.0591,2.0744,2.0749,2.0753,2.0746,0,0,2.0767,2.0769,0,0,0,0,0,0,0,0,2.0226,2.024,2.0377,2.0386,2.0396,2.0507,2.0456,2.0561,2.0585,2.0515,2.059,2.0592,2.0665,2.0677,2.0701,2.0754,2.076,2.0768,2.0771,2.0773,2.0774,0,0,0,0,0,0,0,2.0219,2.0234,2.037,2.0379,2.039,2.0421,2.0438,2.0477,2.0579,2.0522,2.0531,2.0547,2.0671,2.0697,2.0706,2.0763,2.0768,2.0772,2.0775,2.0776,2.0821,2.0819,0,0,0,0,0,0,2.0198,2.0227,2.0365,2.0375,2.0314,2.0423,2.0442,2.047,2.0579,2.0597,2.0545,2.0552,2.0688,2.07,2.0712,2.0714,2.0772,2.0777,2.0779,2.0822,2.0821,2.0819,0,0,0,0,0,0,2.0194,2.021,2.0359,2.0303,2.0325,2.0424,2.0454,2.0472,2.0498,2.0597,2.0615,2.0553,2.069,2.0705,2.0738,2.0721,2.0779,2.0783,2.0824,2.0822,2.082,2.0715,0,0,0,0,0,0,2.0188,2.0207,2.0205,2.0302,2.0327,2.0381,2.0453,2.0473,2.0505,2.0516,2.0609,2.0626,2.0692,2.073,2.0742,2.0728,2.0787,2.0826,2.0823,2.082,2.072,2.0709,2.07,0,0,0,0,0,2.0181,2.0169,2.0204,2.022,2.0326,2.038,2.0394,2.0471,2.0503,2.0503,2.0567,2.0623,2.072,2.0732,2.0747,2.0734,2.0828,2.0824,2.0821,2.0725,2.0711,2.07,0,0,0,0,0,0,2.0066,2.0183,2.0223,2.0242,2.03,2.04,2.0401,2.0454,2.0504,2.0512,2.0605,2.0625,2.0648,2.0694,2.0706,2.0735,2.0782,2.0781,2.0704,2.0692,2.0682,2.067,2.079,0,0,0,0,0,2.0043,2.0076,2.0177,2.0184,2.0211,2.0301,2.0327,2.0381,2.0446,2.0471,2.0537,2.0597,2.0642,2.0669,2.0716,2.0728,2.0751,2.0726,2.0716,2.0707,2.0705,2.0718,2.0709,2.0807,2.0807,2.0807,0,0,1.9995,2.0063,2.0078,2.0162,2.0214,2.0248,2.0321,2.0352,2.0379,2.0476,2.0511,2.0561,2.0635,2.0658,2.0671,2.0697,2.0683,2.0702,2.0694,2.0698,2.0714,2.0704,2.0696,2.0805,2.0805,2.0806,0,0,1.9926,1.998,1.9993,2.0044,2.0121,2.0182,2.0184,2.0277,2.0315,2.0352,2.0426,2.0459,2.0533,2.0584,2.0619,2.0571,2.0626,2.0584,2.053,2.0542,2.0534,2.0528,2.0513,2.0507,2.0582,2.0582,2.0581,0,1.9857,1.9911,1.9993,2.0021,2.0057,2.0147,2.0162,2.0207,2.0295,2.0318,2.0346,2.0443,2.0499,2.0536,2.0525,2.055,2.0558,2.0574,2.0528,2.0523,2.0518,2.0506,2.05,2.0576,2.0577,2.0577,2.0578,0,1.9823,1.9859,1.9861,1.9945,1.9981,2.0002,2.0089,2.0115,2.0167,2.0224,2.0262,2.0333,2.0396,2.0409,2.0459,2.0454,2.0469,2.0511,2.056,2.0502,2.0492,2.0487,2.0568,2.057,2.0572,2.0573,0,0,1.9685,1.9816,1.9816,1.9856,1.9949,1.9979,2.0005,2.0068,2.009,2.0148,2.0174,2.0236,2.0277,2.0317,2.0374,2.0384,2.0345,2.0426,2.0429,2.041,2.0347,2.0316,2.0309,2.0382,2.0381,2.038,2.0342,0,1.9633,1.9685,1.9761,1.9788,1.9824,1.9911,1.9934,1.9994,2.0049,2.0089,2.015,2.0193,2.0243,2.0268,2.0281,2.0347,2.0334,2.035,2.0408,2.0409,2.0388,2.0303,2.0269,2.0229,2.0338,2.0338,2.0337,0,1.9578,1.9632,1.9663,1.9756,1.9774,1.9793,1.9859,1.9894,1.9965,2.0005,2.0051,2.0113,2.0147,2.0191,2.024,2.025,2.0278,2.0314,2.0314,2.0324,2.037,2.0312,2.0218,2.0213,2.0331,2.0332,2.0332,0,1.9477,1.9558,1.9588,1.962,1.9728,1.974,1.9786,1.9859,1.9892,1.9949,1.9973,2.0032,2.0066,2.0111,2.0189,2.0213,2.0231,2.028,2.0266,2.0264,2.0267,2.0266,2.0178,2.0282,2.0282,2.0282,2.0282,0,1.9411,1.9427,1.9545,1.9563,1.9584,1.9672,1.9691,1.9745,1.981,1.9841,1.992,1.9948,2.0048,2.0088,2.0149,2.0183,2.0196,2.0231,2.0247,2.0225,2.0221,2.0245,2.0251,2.0281,2.0281,2.0281,2.0281,0,1.9302,1.9381,1.942,1.952,1.9545,1.9557,1.9643,1.9665,1.9726,1.9765,1.9779,1.9874,1.9926,2.0008,2.0084,2.0125,2.0149,2.0174,2.0124,2.0135,2.0117,2.0119,2.0044,2.004,2.0143,2.0142,2.0141,0,1.9255,1.927,1.9372,1.9399,1.9442,1.9484,1.952,1.9607,1.9641,1.9724,1.9737,1.9795,1.9846,1.9926,2.0002,2.0061,2.009,2.006,2.01,2.0078,2.0093,2.0092,2.0095,2.0051,2.0049,2.0048,2.0047,0,1.9165,1.9204,1.9252,1.9313,1.9354,1.9407,1.9463,1.9481,1.9582,1.9616,1.967,1.971,1.9789,1.9846,1.9917,1.9965,2.0024,2.0034,2.0035,2.0013,1.9984,2.0002,2.0101,2.0036,2.0037,2.0038,2.0038,2.0039,1.9088,1.9106,1.9181,1.9232,1.9285,1.9337,1.9363,1.9427,1.9474,1.9545,1.9594,1.9646,1.972,1.982,1.9866,1.9909,1.9934,1.9934,1.9935,1.9934,1.9927,1.9976,1.9922,1.9922,1.9923,1.9923,1.9923,0,1.9003,1.9057,1.9103,1.9181,1.9221,1.9273,1.9339,1.937,1.9415,1.9478,1.9528,1.9592,1.9649,1.973,1.9794,1.9813,1.9841,1.9826,1.9827,1.9838,1.9899,1.9893,1.9802,1.9802,1.9803,1.9803,1.9803,1.9803,1.8965,1.8999,1.9047,1.9109,1.9163,1.9214,1.9248,1.9297,1.9349,1.9417,1.9464,1.9517,1.9589,1.9659,1.9714,1.9737,1.9758,1.9735,1.9766,1.9822,1.9833,1.9844,1.9839,1.9738,1.9738,1.9702,1.9701,1.9701]}]]